Tri-Cities, TN

8:02 AM EST on December 15, 2017 (GMT -0500)
Tri-Cities Regional Tennessee / Virginia

Weather History for KTRI - August, 2012

Change the Weather History Date:

Friday, August 24, 2012

  Actual Average Record
Temperature  
Mean Temperature 73 °F 73 °F  
Max Temperature 87 °F 85 °F 97 °F (2007)
Min Temperature 59 °F 62 °F 48 °F (1997)
Degree Days  
Heating Degree Days 0 0  
Month to date heating degree days 0 0  
Since 1 June heating degree days 5 11  
Since 1 July heating degree days 0 0  
Cooling Degree Days 8 8  
Month to date cooling degree days 193 217  
Year to date cooling degree days 995 795  
Since 1 June cooling degree days 833 722  
Growing Degree Days 22 (Base 50)    
Moisture  
Dew Point 61 °F    
Average Humidity 69    
Maximum Humidity 100    
Minimum Humidity 37    
Precipitation  
Precipitation 0.07 in 0.10 in 1.80 in (2000)
Month to date precipitation 1.96 2.78  
Year to date precipitation 32.65 28.76  
Snow  
Snow 0.00 in 0.00 in - ()
Month to date snowfall 0.0 0.0  
Since 1 June snowfall 0.0 0.0  
Since 1 July snowfall 0.0 0.0  
Snow Depth 0.00 in    
Sea Level Pressure  
Sea Level Pressure 30.10 in    
Wind  
Wind Speed 2 mph (East)    
Max Wind Speed 13 mph    
Max Gust Speed 21 mph    
Visibility 9 miles    
Events Thunderstorm    
T = Trace of Precipitation, MM = Missing Value Source: NWS Daily Summary

Daily Weather History Graph

Daily Weather History Graph

Search for Another Location

Airport or City:

Trip Planner

Search our weather history database for the weather conditions in past years. The results will help you decide how hot, cold, wet, or windy it might be!

Date:

Astronomy

Aug. 24, 2012 Rise Set
Actual Time 6:54 AM EDT 8:08 PM EDT
Civil Twilight 6:28 AM EDT 8:34 PM EDT
Nautical Twilight 5:56 AM EDT 9:06 PM EDT
Astronomical Twilight 5:22 AM EDT 9:39 PM EDT
Moon 2:32 PM EDT (8/24) No Moon Set
Length of Visible Light 14h 06m
Length of Day
13h 13m
Waxing Crescent, 51% of the Moon is Illuminated
Aug 24
Waxing Crescent
Aug 31
Full
Sep 8
Last Quarter
Sep 15
New
Sep 22
First Quarter

Hourly Weather History & Observations

Time (EDT) Temp. Heat Index Dew Point Humidity Pressure Visibility Wind Dir Wind Speed Gust Speed Precip Events Conditions
12:53 AM 64.9 °F - 62.1 °F 90% 30.11 in 10.0 mi Calm Calm - N/A   Partly Cloudy
1:53 AM 66.9 °F - 61.0 °F 81% 30.09 in 10.0 mi Calm Calm - N/A   Clear
2:53 AM 62.1 °F - 60.1 °F 93% 30.09 in 9.0 mi Calm Calm - N/A   Clear
3:53 AM 61.0 °F - 59.0 °F 93% 30.09 in 9.0 mi Calm Calm - N/A   Clear
4:53 AM 60.1 °F - 59.0 °F 96% 30.09 in 9.0 mi Calm Calm - N/A   Clear
5:53 AM 60.1 °F - 57.9 °F 93% 30.10 in 9.0 mi Calm Calm - N/A   Partly Cloudy
6:53 AM 59.0 °F - 57.9 °F 96% 30.12 in 4.0 mi Calm Calm - N/A   Partly Cloudy
7:12 AM 59.0 °F - 57.2 °F 94% 30.19 in 4.0 mi Calm Calm - N/A   Partly Cloudy
7:53 AM 62.1 °F - 60.1 °F 93% 30.13 in 10.0 mi Calm Calm - N/A   Partly Cloudy
8:53 AM 68.0 °F - 63.0 °F 84% 30.14 in 10.0 mi Calm Calm - N/A   Clear
9:53 AM 71.1 °F - 63.0 °F 75% 30.15 in 10.0 mi Calm Calm - N/A   Clear
10:53 AM 75.9 °F - 64.0 °F 67% 30.14 in 10.0 mi Calm Calm - N/A   Clear
11:53 AM 80.1 °F 81.1 °F 61.0 °F 52% 30.13 in 10.0 mi ESE 3.5 mph - N/A   Partly Cloudy
12:53 PM 82.0 °F 82.4 °F 60.1 °F 47% 30.11 in 10.0 mi SSW 4.6 mph - N/A   Scattered Clouds
1:53 PM 82.9 °F 82.8 °F 59.0 °F 44% 30.09 in 10.0 mi Calm Calm - N/A   Scattered Clouds
2:53 PM 84.9 °F 84.2 °F 57.9 °F 40% 30.06 in 10.0 mi South 6.9 mph - N/A   Scattered Clouds
3:53 PM 84.9 °F 84.2 °F 57.9 °F 40% 30.04 in 10.0 mi East 3.5 mph - N/A   Scattered Clouds
4:53 PM 84.0 °F 82.9 °F 55.0 °F 37% 30.04 in 10.0 mi Calm Calm - N/A   Mostly Cloudy
5:37 PM 80.6 °F 81.5 °F 60.8 °F 51% 30.11 in 10.0 mi East 8.1 mph - N/A Thunderstorm Thunderstorm
5:53 PM 77.0 °F - 62.1 °F 60% 30.07 in 10.0 mi NE 10.4 mph 20.7 mph N/A Thunderstorm Thunderstorm
6:53 PM 71.1 °F - 66.0 °F 84% 30.08 in 10.0 mi East 4.6 mph - 0.07 in   Overcast
7:53 PM 68.0 °F - 63.0 °F 84% 30.09 in 10.0 mi NNE 3.5 mph - 0.00 in   Mostly Cloudy
8:53 PM 66.0 °F - 63.0 °F 90% 30.10 in 10.0 mi Calm Calm - N/A   Scattered Clouds
9:53 PM 64.9 °F - 62.1 °F 90% 30.11 in 9.0 mi Calm Calm - N/A   Scattered Clouds
10:53 PM 64.0 °F - 61.0 °F 90% 30.11 in 8.0 mi Calm Calm - N/A   Partly Cloudy
11:53 PM 61.0 °F - 60.1 °F 97% 30.11 in 8.0 mi NE 3.5 mph - N/A   Partly Cloudy